www.pogodaiklimat.ru

Погода и климат >> Архив погоды >> Гана >> Kete-Krachi


ПОГОДА в Kete-Krachi

  • Прогноз погоды в Kete-Krachi
  • Монитор погоды в Kete-Krachi
  • Климат города

АРХИВ ПОГОДЫ в Kete-Krachi

Время (UTC), дата Ветер
(напр.,м/с)
 
Видим.   Явления Облачность Т
(С)
Тd
(С)
f
(%)
Тe
(С)
Тes
(С)
Комфортность P
(гПа)
Po
(гПа)
Тmin
(С)
Tmax
(С)
R
(мм)
R24
(мм)
S
(см)
09 10.11 ЮЗ 2 25 км 8/5 480 м
[Cu med, cong Cs]
+29.5 +24.8 76 +42 +46 опасность
перегрева
1012.1 1012.0
15 10.11 ЮЗ 1 28 км 9/3 500 м
[Cb cap Cs]
+34.2 +23.8 55 +46 +52 опасность
перегрева
1008.0 1008.0
21 10.11 штиль 0 16 км 5/3 400 м
[Sc Ci sp]
+27.5 +24.5 84 +39 +39 очень
душно
1011.4 1011.0
00 11.11 0 400 м 4/0 200 м
[Ci sp]
+28.0 +25.3 85 1011.2 1011.0
06 11.11 штиль 0 20 км 8/4 400 м
[Sc Ac trans Cs]
+26.0 +24.6 92 +37 +37 очень
душно
1010.2 1010.0 +25.8
09 11.11 ЮЗ 2 24 км 8/5 480 м
[Cu med, cong Ac trans]
+30.0 +25.3 76 +44 +46 опасность
перегрева
1011.9 1012.0
12 11.11 ЮЗ 2 26 км 5/4 480 м
[Cu med, cong Ci sp]
+33.5 +24.8 60 +47 +58 опасность
перегрева
1009.8 1010.0
18 11.11 штиль 0 22 км 5/1 900 м
[Cb cap Ac trans Ci sp]
+31.5 +25.5 71 +46 +46 опасность
перегрева
1007.7 1008.0 +35.0
21 11.11 штиль 0 16 км 3/0
[Ci sp]
+27.5 +24.8 85 +39 +39 очень
душно
1009.8 1010.0
00 12.11 ЮЗ 2 16 км 4/1 400 м
[Sc Ci sp]
+27.8 +26.1 90 +42 +42 опасность
перегрева
1010.1 1010.0
09 12.11 ЮЗ 2 25 км 8/4 400 м
[Cu Sc Ac trans Cs]
+29.0 +25.5 81 +43 +46 опасность
перегрева
1011.4 1011.0
12 12.11 ЮЗ 3 25 км 4/3 500 м
[Cu med, cong Ac trans Ci sp]
+33.2 +24.9 62 +47 +56 опасность
перегрева
1009.2 1009.0
15 12.11 ЮЗ 3 25 км 5/3 500 м
[Cb cap Ac trans Ci sp]
+35.9 +23.8 50 +47 +52 опасность
перегрева
1006.6 1007.0
18 12.11 СЗ 2 20 км 6/1 900 м
[Cb cap Ac trans Ci sp]
+31.7 +26.0 72 +47 +47 опасность
перегрева
1007.9 1008.0 +35.9
21 12.11 ЮВ 2 16 км 8/0
[Ac trans]
+28.5 +25.1 82 +41 +41 опасность
перегрева
1010.8 1011.0
00 13.11 штиль 0 16 км 5/0
[Ci sp]
+27.8 +25.0 85 +40 +40 очень
душно
1010.4 1010.0
03 13.11 штиль 0 16 км 4/0
[Ci sp]
+25.2 +23.5 90 +34 +34 очень
душно
1008.8 1009.0
06 13.11 штиль 0 22 км 5/3 360 м
[Sc Ci sp]
+25.5 +24.1 92 +35 +35 очень
душно
1009.9 1010.0 +24.2
09 13.11 ЮЗ 5 25 км 4/3 480 м
[Cu hum Ci sp]
+30.0 +24.6 73 +43 +46 опасность
перегрева
1011.3 1011.0
12 13.11 ЮЗ 4 25 км 4/4 480 м
[Cu med, cong Ci sp]
+33.9 +24.7 59 +47 +54 опасность
перегрева
1008.6 1009.0
15 13.11 ЮВ 3 25 км 5/3 500 м
[Cu med, cong Ci sp]
+35.7 +23.7 50 +47 +52 опасность
перегрева
1006.1 1006.0
09 14.11 ЮЗ 2 25 км 6/5 400 м
[Cu Sc Ci sp]
+29.8 +25.7 79 +44 +48 опасность
перегрева
1011.8 1012.0
12 14.11 Ю 2 25 км 6/6 400 м
[Cu Sc Ci sp]
+34.3 +25.3 60 +49 +56 опасность
перегрева
1008.8 1009.0
15 14.11 СЗ 2 25 км 4/3 500 м
[Cb cap Ac trans Ci sp]
+36.0 +24.4 51 +48 +53 опасность
перегрева
1005.9 1006.0
21 14.11 С 1 18 км 6/3 400 м
[Sc Ac trans Ci sp]
+27.8 +24.7 83 +39 +39 очень
душно
1010.1 1010.0
06 15.11 штиль 0 20 км 9/4 400 м
[Sc Ac trans Cs]
+26.0 +23.9 88 +36 +36 очень
душно
1010.0 1010.0 +25.5
09 15.11 ЮЗ 5 25 км 8/5 400 м
[Cu Sc Ci sp]
+30.0 +25.3 76 +44 +46 опасность
перегрева
1011.9 1012.0
12 15.11 Ю 2 25 км 6/5 480 м
[Cu med, cong Ci sp]
+34.0 +24.6 58 +47 +55 опасность
перегрева
1009.8 1010.0
15 15.11 ЮВ 2 25 км 5/3 480 м
[Cb cap Ci sp]
+35.0 +23.0 50 +45 +51 опасность
перегрева
1007.0 1007.0
21 15.11 ЮВ 3 18 км 9/0
[Cs]
+29.0 +24.5 77 +41 +41 опасность
перегрева
1011.0 1011.0
03 16.11 ЮЗ 2 18 км 9/0
[]
+27.0 +24.3 85 +38 +38 очень
душно
1010.3 1010.0
06 16.11 штиль 0 20 км 9/0
[Ac trans Cs]
+26.0 +24.2 90 +36 +36 очень
душно
1011.5 1012.0 +25.6
09 16.11 ЮЗ 2 24 км 6/4 480 м
[Cu med, cong Ac trans Ci sp]
+30.5 +25.1 73 +44 +48 опасность
перегрева
1013.1 1013.0
12 16.11 ЮЗ 2 26 км 5/4 500 м
[Cu med, cong Ac trans]
+33.8 +24.7 59 +47 +56 опасность
перегрева
1011.5 1012.0
15 16.11 Ю 3 28 км 5/4 540 м
[Cb cap Ci sp]
+35.5 +23.8 51 +47 +51 опасность
перегрева
1008.8 1009.0
18 16.11 штиль 0 22 км 8/0
[Ac trans Ci sp]
+31.5 +24.8 68 +45 +45 опасность
перегрева
1009.3 1009.0 +35.5
21 16.11 штиль 0 18 км 6/3 400 м
[Sc Ci sp]
+28.0 +24.9 83 +40 +40 очень
душно
1011.9 1012.0
00 17.11 ЮЗ 3 18 км 4/0
[Ci sp]
+28.0 +24.6 82 +40 +40 очень
душно
1012.4 1012.0
06 17.11 штиль 0 22 км 8/4 360 м
[Sc Ac trans Ci sp]
+26.3 +23.8 86 +36 +36 очень
душно
1012.2 1012.0 +25.6

 

Местоположение метеостанции Kete-Krachi (Гана): широта 7.82 долгота -0.03 высота над уровнем моря 122 м.

В архиве по умолчанию представлена погода в Kete-Krachi за последнюю неделю. Архивные данные за месяц целиком и за предыдущие месяцы, начиная с января 2011 года, Вы можете получить, выбрав интересующий диапазон дат из раскрывающегося списка и нажав кнопку "Ввод!".


*Определитесь, кто Вы:
робот инопланетянин человек

Внимание! Время в таблицах - всемирное. Для получения местного времени необходимо прибавить поправку, которая в Kete-Krachi равна 1 ч.

Смотрите также архив погоды в соседних городах и на ближайших метеорологических станциях:

Погода в Atakpame (Того) (130 км)
Погода в Ho (Гана) (146 км)
Погода в Abetifi (Гана) (151 км)
Погода в Yendi (Гана) (181 км)
Погода в Sokode (Того) (183 км)
Погода в Akuse (Гана) (192 км)
Погода в Koforidua (Гана) (195 км)
Погода в Tamale (Гана) (207 км)
Погода в Akatsi (Гана) (210 км)
Погода в Kumasi (Гана) (212 км)

Пояснения к столбцам:

Ветер - указаны скорость ветра в м/с - средняя за 10 мин, порывы в срок и между сроками (в фигурных скобках) и направление, откуда дует ветер: С - северный, СВ - северо-восточный, В - восточный, ЮВ - юго-восточный, Ю - южный, ЮЗ - юго-западный, З - западный, СЗ - северо-западный.
Видимость - горизонтальная дальность видимости в метрах или километрах. При видимости от 1 до 10 км при отсутствии осадков обычно наблюдается дымка, при ухудшении видимости до 1 км и менее - туман. В сухую погоду видимость может ухудшаться дымом, пылью или мглою.
Явления - указаны атмосферные явления, наблюдавшиеся в срок или в последний час перед сроком; фигурными скобками обозначены явления, наблюдавшиеся между сроками (за 1-3 часа до срока); квадратными скобками обозначены град или гололедные отложения с указанием их диаметра в мм.
Облачность - указаны через наклонную черту общая и нижняя облачность в баллах и высота нижней границы облаков в метрах; квадратными скобками обозначены формы облаков: Ci - перистые, Cs - перисто-слоистые, Cc - перисто-кучевые, Ac - высококучевые, As - высокослоистые, Sc - слоисто-кучевые, Ns - слоисто-дождевые, Cu - кучевые, Cb - кучево-дождевые. Подробнее классификацию облаков см. в Атласе облаков (PDF).
T - Температура воздуха - температура, измеренная на высоте 2 м над землей.
Td - Температура точки росы - температура, при понижении до которой содержащийся в воздухе водяной пар достигнет насыщения.
f - Относительная влажность воздуха - влажноcть воздуха, измеренная на высоте 2 м над землей.
Te - Эффективная температура - температура, которую ощущает одетый по сезону человек в тени. Характеристика душности погоды. При расчете учитывается влияние влажности воздуха и скорости ветра на теплоощущения человека.
Tes - Эффективная температура на солнце - температура, которую ощущает человек, с поправкой на солнечный нагрев. Характеристика знойности погоды. Зависит от высоты солнца над горизонтом, облачности и скорости ветра. Ночью, в пасмурную погоду, а также при ветре 12 м/с и более поправка равна нулю.
P - Атмосферное давление - приведенное к уровню моря атмосферное давление.
Po - Атмосферное давление - измеренное на уровне метеостанции атмосферное давление.
Tmin - Минимальная температура - минимум температуры воздуха на высоте 2 м над землей.
Tmax - Максимальная температура - максимум температуры воздуха на высоте 2 м над землей.
R - Количество осадков - Количество выпавших осадков за период времени, мм. При наведении курсора мыши на число - период времени, за который выпало указанное количество осадков.
R24 - Количество осадков - Количество выпавших осадков за 24 часа, мм.
S - Снежный покров - Высота снежного покрова, см. При наведении курсора мыши на число - состояние снежного покрова и степень покрытия местности в баллах.